User: anonymous   Login
Location: Alsip
(41.6689°N, 87.7387°W)
Time: 04:42:08
(UTC+00:00)
Language:

STRAND 1 - Orbit

View from above orbital plane
View from above orbital plane
View from above satellite
View from above satellite

Ground track
Ground track

The orbit data is extracted from the following two-line orbital elements,

1 39090U 13009E   21289.29735003  .00000077  00000-0  42059-4 0  9993
2 39090  98.4183 128.6033 0008020 280.9725  79.0558 14.35191428452375
Epoch (UTC): 16 October 2021 07:08:11
Eccentricity: 0.0008020
inclination: 98.4183°
perigee height: 768 km
apogee height: 780 km
right ascension of ascending node: 128.6033°
argument of perigee: 280.9725°
revolutions per day: 14.35191428
mean anomaly at epoch: 79.0558°
orbit number at epoch: 45237

The dashed part of the orbit path shows where the satellite is in the earth's shadow,  

DLR